This demonstration page uses our WeatherBlox Daily Observations layout. Learn more.

Hourly Observations for September 8, 2020

Temp ( °F °C ) Dew Point ( °F °C ) Humidity (%) Winds ( mph kmh ) Pressure ( in mb ) Visibility ( mi km ) Precip ( " mm )
12:15 am 00:15 Clear 64 18 61 16 88 88 S 3 6 30.07 1018 10 16.0934 0 0
12:35 am 00:35 Clear 63 17 61 16 94 94 S 5 7 30.06 1018 10 16.0934 0 0
12:55 am 00:55 Clear 64 18 61 16 88 88 S 9 15 30.04 1017 10 16.0934 0 0
1:15 am 01:15 Clear 64 18 61 16 88 88 SW 5 7 30.05 1018 10 16.0934 0 0
1:35 am 01:35 Clear 63 17 61 16 94 94 SSW 3 6 30.06 1018 10 16.0934 0 0
1:55 am 01:55 Clear 63 17 61 16 94 94 Calm 30.07 1018 10 16.0934 0 0
2:15 am 02:15 Clear 63 17 61 16 94 94 Calm 30.06 1018 10 16.0934 0 0
2:35 am 02:35 Clear 61 16 61 16 100 100 Calm 30.06 1018 10 16.0934 0 0
2:55 am 02:55 Clear 61 16 59 15 94 94 Calm 30.07 1018 10 16.0934 0 0
3:15 am 03:15 Clear 59 15 59 15 100 100 Calm 30.07 1018 10 16.0934 0 0
3:35 am 03:35 Clear 61 16 61 16 100 100 Calm 30.07 1018 10 16.0934 0 0
3:55 am 03:55 Clear 61 16 61 16 100 100 E 3 6 30.08 1019 10 16.0934 0 0
4:15 am 04:15 Clear 61 16 61 16 100 100 E 6 9 30.08 1019 10 16.0934 0 0
4:35 am 04:35 Clear 59 15 59 15 100 100 N 3 6 30.09 1019 10 16.0934 0 0
4:55 am 04:55 Clear 57 14 57 14 100 100 Calm 30.1 1019 10 16.0934 0 0
5:15 am 05:15 Clear 59 15 59 15 100 100 N 3 6 30.1 1019 10 16.0934 0 0
5:35 am 05:35 Clear 59 15 59 15 100 100 Calm 30.1 1019 10 16.0934 0 0
5:55 am 05:55 Clear 59 15 59 15 100 100 NNE 3 6 30.1 1019 10 16.0934 0 0
6:15 am 06:15 Clear 59 15 59 15 100 100 Calm 30.11 1020 10 16.0934 0 0
6:35 am 06:35 Clear 57 14 57 14 100 100 Calm 30.12 1020 10 16.0934 0 0
6:55 am 06:55 Sunny 57 14 57 14 100 100 Calm 30.13 1020 10 16.0934 0 0
7:15 am 07:15 Sunny 57 14 57 14 100 100 Calm 30.13 1020 10 16.0934 0 0
7:35 am 07:35 Sunny 57 14 57 14 100 100 N 3 6 30.14 1021 10 16.0934 0 0
7:55 am 07:55 Sunny 59 15 59 15 100 100 Calm 30.15 1021 10 16.0934 0 0
8:15 am 08:15 Sunny 61 16 59 15 94 94 NNE 5 7 30.15 1021 10 16.0934 0 0
8:35 am 08:35 Sunny 61 16 61 16 100 100 Calm 30.15 1021 10 16.0934 0 0
8:55 am 08:55 Sunny 63 17 61 16 94 94 Calm 30.15 1021 10 16.0934 0 0
9:15 am 09:15 Sunny 64 18 63 17 94 94 Calm 30.14 1021 10 16.0934 0 0
9:35 am 09:35 Sunny 66 19 63 17 88 88 Calm 30.15 1021 10 16.0934 0 0
9:55 am 09:55 Sunny 68 20 64 18 88 88 Calm 30.16 1021 10 16.0934 0 0
10:15 am 10:15 Sunny 70 21 64 18 83 83 Calm 30.16 1021 10 16.0934 0 0
10:35 am 10:35 Sunny 70 21 64 18 83 83 Calm 30.17 1022 10 16.0934 0 0
10:55 am 10:55 Sunny 73 23 64 18 74 74 Calm 30.17 1022 10 16.0934 0 0
11:15 am 11:15 Sunny 73 23 63 17 69 69 Calm 30.17 1022 10 16.0934 0 0
11:35 am 11:35 Sunny 75 24 64 18 69 69 Calm 30.17 1022 10 16.0934 0 0
11:55 am 11:55 Sunny 77 25 63 17 61 61 ENE 3 6 30.16 1021 10 16.0934 0 0
12:15 pm 12:15 Sunny 77 25 63 17 61 61 S 5 7 30.16 1021 10 16.0934 0 0
12:35 pm 12:35 Sunny 81 27 63 17 54 54 SSW 3 6 30.15 1021 10 16.0934 0 0
12:55 pm 12:55 Sunny 81 27 64 18 58 58 SSW 7 11 30.15 1021 10 16.0934 0 0
1:15 pm 13:15 Sunny 81 27 64 18 58 58 WSW 7 11 30.15 1021 10 16.0934 0 0
1:35 pm 13:35 Partly Cloudy 82 28 64 18 55 55 SSW 3 6 30.15 1021 10 16.0934 0 0
1:55 pm 13:55 Mostly Cloudy 82 28 66 19 58 58 SSE 5 7 30.15 1021 10 16.0934 0 0
2:15 pm 14:15 Mostly Cloudy 82 28 66 19 58 58 SSW 6 9 30.15 1021 10 16.0934 0 0
2:35 pm 14:35 Mostly Cloudy 82 28 64 18 55 55 SSE 7 11 30.14 1021 10 16.0934 0 0
2:55 pm 14:55 Partly Cloudy 84 29 66 19 55 55 S 6 9 30.13 1020 10 16.0934 0 0
3:15 pm 15:15 Mostly Cloudy 84 29 66 19 55 55 WSW 5 7 30.13 1020 10 16.0934 0 0
3:35 pm 15:35 Mostly Cloudy 84 29 66 19 55 55 SSW 5 7 30.13 1020 10 16.0934 0 0
3:55 pm 15:55 Mostly Cloudy 82 28 66 19 58 58 SSW 5 7 30.12 1020 10 16.0934 0 0
4:15 pm 16:15 Cloudy 82 28 66 19 58 58 NE 3 6 30.12 1020 10 16.0934 0 0
4:35 pm 16:35 Cloudy 82 28 64 18 55 55 SSE 5 7 30.12 1020 10 16.0934 0 0
4:55 pm 16:55 Cloudy 82 28 68 20 62 62 S 5 7 30.12 1020 10 16.0934 0 0
5:15 pm 17:15 Partly Cloudy 82 28 66 19 58 58 S 5 7 30.12 1020 10 16.0934 0 0
5:35 pm 17:35 Partly Cloudy 82 28 66 19 58 58 S 5 7 30.12 1020 10 16.0934 0 0
5:55 pm 17:55 Partly Cloudy 82 28 68 20 62 62 SSW 3 6 30.12 1020 10 16.0934 0 0
6:15 pm 18:15 Sunny 82 28 68 20 62 62 Calm 30.12 1020 10 16.0934 0 0
6:35 pm 18:35 Partly Cloudy 81 27 68 20 66 66 SSW 3 6 30.12 1020 10 16.0934 0 0
6:55 pm 18:55 Partly Cloudy 79 26 68 20 70 70 Calm 30.12 1020 10 16.0934 0 0
7:15 pm 19:15 Sunny 79 26 68 20 70 70 Calm 30.12 1020 10 16.0934 0 0
7:35 pm 19:35 Clear 79 26 68 20 70 70 Calm 30.12 1020 10 16.0934 0 0
7:55 pm 19:55 Clear 77 25 68 20 74 74 S 3 6 30.13 1020 10 16.0934 0 0
8:15 pm 20:15 Clear 75 24 68 20 78 78 Calm 30.14 1021 10 16.0934 0 0
8:35 pm 20:35 Clear 73 23 70 21 89 89 Calm 30.16 1021 10 16.0934 0 0
8:55 pm 20:55 Clear 73 23 70 21 89 89 Calm 30.16 1021 10 16.0934 0 0
9:15 pm 21:15 Clear 72 22 70 21 94 94 Calm 30.17 1022 10 16.0934 0 0
9:35 pm 21:35 Partly Cloudy 72 22 70 21 94 94 Calm 30.17 1022 10 16.0934 0 0
9:55 pm 21:55 Partly Cloudy 72 22 68 20 88 88 Calm 30.17 1022 10 16.0934 0 0
10:15 pm 22:15 Partly Cloudy 72 22 68 20 88 88 Calm 30.17 1022 10 16.0934 0 0
10:35 pm 22:35 Partly Cloudy 70 21 68 20 94 94 Calm 30.17 1022 10 16.0934 0 0
10:55 pm 22:55 Partly Cloudy 68 20 68 20 100 100 Calm 30.18 1022 10 16.0934 0 0
11:15 pm 23:15 Mostly Cloudy 70 21 68 20 94 94 Calm 30.18 1022 10 16.0934 0 0
11:35 pm 23:35 Mostly Cloudy 68 20 68 20 100 100 Calm 30.18 1022 10 16.0934 0 0
11:55 pm 23:55 Cloudy 70 21 68 20 94 94 N 3 6 30.18 1022 10 16.0934 0 0

Powered by AerisWeather